Flag for Switzerland Weather past 2 weeks in Thalwil, Zurich, Switzerland

Now
55 °F

Cool.


Feels Like: 55 °F
Forecast: 44 / 62 °F
Wind: 2 mph from North

Location: Zurich Town / Ville.

Current Time: Sep 22, 2014 at 12:39:47 AM

Latest Report: Sep 22, 2014 at 12:00 AM


Visibility: N/A

Pressure: 30.09 "Hg

Humidity: 96%

Dew point: 54 °F

Location of ThalwilLocation

Historic Weather in Thalwil — Graph

°F

Thalwil temperature yesterday

Maximum temperature yesterday: 68 °F (at 1:00 PM)
Minimum temperature yesterday: 56 °F (at 10:00 PM)
Average temperature yesterday: 61 °F

Past Weeks' High & Low Weather Summary

 TemperatureHumidityPressure
High80 °F (Sep 8, 3:00 PM)100% (Sep 16, 7:00 AM)30.16 "Hg (Sep 16, 7:00 AM)
Low49 °F (Sep 12, 6:00 AM)47% (Sep 7, 4:00 PM)29.81 "Hg (Sep 17, 5:00 PM)
Average61 °F83%29.98 "Hg
* Reported Sep 6 10:00 PM — Sep 21 10:00 PM, Thalwil, Weather by CustomWeather, © 2014

Note: Actual official high and low records may vary slightly from our data, if they occured in-between our weather recording intervals... More about our weather records

Advertising

Thalwil weather history for previous 24 hours

 ConditionsComfort  
Time TempWeatherWind HumidityBarometerVisibility
10:00 PM
Sep 21
56 °FCool.5 mph96%30.07 "HgN/A
9:00 PM58 °FCool.6 mph96%30.04 "HgN/A
8:00 PM58 °FOvercast.9 mph96%30.01 "HgN/A
7:00 PM59 °FCool.3 mph94%30.00 "HgN/A
6:00 PM60 °FCool.6 mph93%30.01 "HgN/A
5:00 PM62 °FCool.2 mph92%29.99 "HgN/A
4:00 PM62 °FCool.2 mph92%29.99 "HgN/A
3:00 PM60 °FCool.2 mph94%30.01 "HgN/A
2:00 PM57 °FPartly sunny.9 mph95%30.03 "HgN/A
1:00 PM68 °FMild.3 mph75%29.98 "HgN/A
12:00 PM63 °FMild.3 mph79%30.02 "HgN/A
11:00 AM64 °FMild.7 mph77%30.02 "HgN/A
10:00 AM62 °FCool.8 mph84%30.03 "HgN/A
9:00 AM59 °FCool.7 mph92%30.05 "HgN/A
8:00 AM58 °FPartly sunny.6 mph93%30.05 "HgN/A
7:00 AM58 °FCool.6 mph95%30.04 "HgN/A
6:00 AM60 °FCool.2 mph86%30.03 "HgN/A
5:00 AM61 °FCool.3 mph82%30.02 "HgN/A
4:00 AM61 °FCool.5 mph83%30.03 "HgN/A
3:00 AM62 °FCool.3 mph84%30.03 "HgN/A
2:00 AM62 °FCool.3 mph86%30.04 "HgN/A
1:00 AM62 °FCool.2 mph85%30.04 "HgN/A
12:00 AM62 °FCool.2 mph85%30.04 "HgN/A
Weather by CustomWeather, © 2014

See weather overviewHow to use our weather pages